STARLINK-35172

Last updated on Tue Oct 07 2025 00:02:06 GMT+0000 (Coordinated Universal Time)

1 65533U 25200P 25279.50003471 -.01468892 00000+0 -37019-1 0 9996 2 65533 97.6034 346.2089 0001334 78.2022 8.9817 15.42835530 5865

Satellite not in orbit

STARLINK-35172